| time (UTC) | temp F | wind direction | speed knots | gust knots | rain 1hr in | rain 24hr in | rain mn in | humidity % | barometer mb |
| 20260505075516 | 52 | 203 | 2.6 | 8.7 | 0.00 | 0.00 | 0.00 | 84 | 1009.9 |
| 20260505074517 | 52 | 180 | 2.6 | 7.0 | 0.00 | 0.00 | 0.00 | 84 | 1009.8 |
| 20260505073516 | 52 | 180 | 2.6 | 7.8 | 0.00 | 0.00 | 0.00 | 83 | 1009.9 |
| 20260505072517 | 53 | 203 | 2.6 | 6.1 | 0.00 | 0.00 | 0.00 | 82 | 1010.0 |
| 20260505071517 | 53 | 180 | 3.5 | 11.3 | 0.00 | 0.00 | 0.00 | 82 | 1010.0 |
| 20260505070537 | 53 | 203 | 3.5 | 9.6 | 0.00 | 0.00 | 0.00 | 81 | 1009.9 |
| 20260505065517 | 53 | 180 | 3.5 | 10.4 | 0.00 | 0.00 | 0.00 | 81 | 1009.9 |
| 20260505064516 | 53 | 203 | 2.6 | 9.6 | 0.00 | 0.00 | 0.00 | 80 | 1009.9 |
| 20260505063558 | 54 | 225 | 3.5 | 10.4 | 0.00 | 0.00 | 0.00 | 80 | 1010.0 |
| 20260505062516 | 54 | 203 | 3.5 | 7.8 | 0.00 | 0.00 | 0.00 | 80 | 1009.9 |
| 20260505061516 | 54 | 180 | 2.6 | 7.8 | 0.00 | 0.00 | 0.00 | 80 | 1009.9 |
| 20260505060536 | 54 | 203 | 2.6 | 9.6 | 0.00 | 0.00 | 0.00 | 80 | 1010.0 |
| 20260505055516 | 54 | 203 | 2.6 | 9.6 | 0.00 | 0.00 | 0.00 | 80 | 1010.1 |
| 20260505054516 | 54 | 203 | 2.6 | 7.8 | 0.00 | 0.00 | 0.00 | 80 | 1010.0 |
| 20260505053516 | 53 | 203 | 2.6 | 7.8 | 0.00 | 0.00 | 0.00 | 80 | 1009.9 |
| 20260505052517 | 53 | 203 | 2.6 | 8.7 | 0.00 | 0.00 | 0.00 | 80 | 1010.0 |
| 20260505051516 | 53 | 180 | 3.5 | 7.8 | 0.00 | 0.00 | 0.00 | 79 | 1010.1 |
| 20260505050516 | 54 | 203 | 4.3 | 8.7 | 0.00 | 0.00 | 0.00 | 79 | 1010.2 |
| 20260505041516 | 54 | 180 | 3.5 | 6.1 | 0.00 | 0.00 | 0.00 | 77 | 1010.1 |
| 20260505040516 | 54 | 180 | 3.5 | 8.7 | 0.00 | 0.00 | 0.00 | 76 | 1010.1 |
| 20260505035517 | 55 | 225 | 3.5 | 9.6 | 0.00 | 0.00 | 0.00 | 76 | 1010.1 |
| 20260505034517 | 55 | 180 | 3.5 | 8.7 | 0.00 | 0.00 | 0.00 | 75 | 1010.0 |
| 20260505033538 | 55 | 180 | 3.5 | 10.4 | 0.00 | 0.00 | 0.00 | 75 | 1010.0 |
| 20260505032517 | 55 | 248 | 3.5 | 7.8 | 0.00 | 0.00 | 0.00 | 74 | 1010.0 |
| 20260505031516 | 55 | 203 | 4.3 | 11.3 | 0.00 | 0.00 | 0.00 | 73 | 1010.0 |
| 20260505030516 | 56 | 203 | 3.5 | 7.8 | 0.00 | 0.00 | 0.00 | 71 | 1010.0 |
| 20260505025516 | 56 | 180 | 2.6 | 6.1 | 0.00 | 0.00 | 0.00 | 70 | 1009.9 |
| 20260505024517 | 56 | 270 | 4.3 | 11.3 | 0.00 | 0.00 | 0.00 | 69 | 1009.9 |
| 20260505023537 | 56 | 248 | 3.5 | 9.6 | 0.00 | 0.00 | 0.00 | 69 | 1009.9 |
| 20260505022516 | 56 | 203 | 3.5 | 7.8 | 0.00 | 0.00 | 0.00 | 70 | 1009.9 |
| 20260505021516 | 56 | 225 | 3.5 | 13.0 | 0.00 | 0.00 | 0.00 | 71 | 1010.0 |
| 20260505020517 | 55 | 180 | 3.5 | 11.3 | 0.00 | 0.00 | 0.00 | 72 | 1010.1 |
| 20260505015537 | 56 | 225 | 4.3 | 11.3 | 0.00 | 0.00 | 0.00 | 71 | 1010.0 |
| 20260505014516 | 57 | 248 | 3.5 | 8.7 | 0.00 | 0.00 | 0.00 | 69 | 1009.7 |
| 20260505013516 | 57 | 225 | 3.5 | 9.6 | 0.00 | 0.00 | 0.00 | 68 | 1009.6 |
| 20260505012517 | 58 | 180 | 5.2 | 13.0 | 0.00 | 0.00 | 0.00 | 65 | 1009.5 |
| 20260505011517 | 59 | 180 | 4.3 | 12.2 | 0.00 | 0.00 | 0.00 | 63 | 1009.3 |
| 20260505010517 | 59 | 225 | 3.5 | 11.3 | 0.00 | 0.00 | 0.00 | 63 | 1009.1 |
| 20260505005516 | 59 | 180 | 3.5 | 8.7 | 0.00 | 0.00 | 0.00 | 64 | 1009.0 |
| 20260505004516 | 59 | 203 | 4.3 | 9.6 | 0.00 | 0.00 | 0.00 | 62 | 1008.7 |
| 20260505003516 | 60 | 248 | 5.2 | 14.8 | 0.00 | 0.00 | 0.00 | 60 | 1008.6 |
| 20260505002516 | 61 | 248 | 3.5 | 10.4 | 0.00 | 0.00 | 0.00 | 58 | 1008.2 |
| 20260505001516 | 61 | 180 | 5.2 | 13.9 | 0.00 | 0.00 | 0.00 | 57 | 1007.8 |
| 20260505000516 | 62 | 203 | 6.1 | 12.2 | 0.00 | 0.00 | 0.00 | 57 | 1007.6 |
| 20260504235516 | 62 | 180 | 7.0 | 15.6 | 0.00 | 0.00 | 0.00 | 57 | 1007.5 |
| 20260504234518 | 62 | 203 | 6.1 | 14.8 | 0.00 | 0.00 | 0.00 | 58 | 1007.4 |
| 20260504233517 | 62 | 225 | 7.8 | 18.2 | 0.00 | 0.00 | 0.00 | 57 | 1007.2 |
| 20260504232516 | 62 | 180 | 7.8 | 18.2 | 0.00 | 0.00 | 0.00 | 57 | 1007.0 |
| 20260504231517 | 62 | 203 | 7.8 | 19.1 | 0.00 | 0.00 | 0.00 | 57 | 1006.8 |
| 20260504230516 | 63 | 180 | 9.6 | 26.1 | 0.00 | 0.00 | 0.00 | 56 | 1006.5 |
| 20260504225516 | 63 | 180 | 7.0 | 14.8 | 0.00 | 0.00 | 0.00 | 57 | 1006.5 |
| 20260504224516 | 63 | 180 | 7.8 | 13.9 | 0.00 | 0.00 | 0.00 | 57 | 1006.5 |
| 20260504223516 | 63 | 203 | 6.1 | 10.4 | 0.00 | 0.00 | 0.00 | 55 | 1006.3 |
| 20260504222516 | 64 | 203 | 7.0 | 16.5 | 0.00 | 0.00 | 0.00 | 53 | 1006.2 |
| 20260504221516 | 64 | 180 | 7.0 | 13.9 | 0.00 | 0.00 | 0.00 | 52 | 1006.1 |
| 20260504220536 | 64 | 203 | 6.1 | 10.4 | 0.00 | 0.00 | 0.00 | 51 | 1006.1 |
| 20260504215516 | 67 | 180 | 6.1 | 12.2 | 0.00 | 0.00 | 0.00 | 47 | 1006.1 |
| 20260504214536 | 71 | 180 | 6.1 | 11.3 | 0.00 | 0.00 | 0.00 | 39 | 1005.9 |
| 20260504213516 | 72 | 248 | 4.3 | 13.0 | 0.00 | 0.00 | 0.00 | 34 | 1006.0 |
| 20260504212516 | 73 | 203 | 3.5 | 10.4 | 0.00 | 0.00 | 0.00 | 34 | 1006.0 |
| 20260504211537 | 72 | 270 | 5.2 | 13.9 | 0.00 | 0.00 | 0.00 | 34 | 1005.9 |
| 20260504210516 | 72 | 248 | 6.1 | 13.0 | 0.00 | 0.00 | 0.00 | 33 | 1006.0 |
| 20260504205516 | 72 | 225 | 6.1 | 13.0 | 0.00 | 0.00 | 0.00 | 34 | 1006.1 |
| 20260504204516 | 72 | 203 | 3.5 | 8.7 | 0.00 | 0.00 | 0.00 | 34 | 1006.0 |
| 20260504203556 | 72 | 270 | 5.2 | 12.2 | 0.00 | 0.00 | 0.00 | 34 | 1006.0 |
| 20260504202516 | 72 | 248 | 6.1 | 13.9 | 0.00 | 0.00 | 0.00 | 33 | 1006.0 |
| 20260504201516 | 72 | 270 | 7.0 | 15.6 | 0.00 | 0.00 | 0.00 | 33 | 1006.1 |
| 20260504200517 | 72 | 225 | 6.1 | 13.0 | 0.00 | 0.00 | 0.00 | 33 | 1006.2 |
| 20260504195516 | 71 | 248 | 8.7 | 15.6 | 0.00 | 0.00 | 0.00 | 33 | 1006.3 |
| 20260504194516 | 72 | 270 | 7.0 | 17.4 | 0.00 | 0.00 | 0.00 | 32 | 1006.3 |
| 20260504193536 | 71 | 248 | 4.3 | 16.5 | 0.00 | 0.00 | 0.00 | 34 | 1006.1 |
| 20260504192517 | 72 | 270 | 5.2 | 9.6 | 0.00 | 0.00 | 0.00 | 33 | 1006.1 |
| 20260504191536 | 71 | 270 | 8.7 | 17.4 | 0.00 | 0.00 | 0.00 | 34 | 1006.3 |
| 20260504190537 | 71 | 203 | 4.3 | 11.3 | 0.00 | 0.00 | 0.00 | 35 | 1006.4 |
| 20260504185516 | 70 | 270 | 7.8 | 13.9 | 0.00 | 0.00 | 0.00 | 34 | 1006.6 |
| 20260504184657 | 70 | 270 | 5.2 | 13.9 | 0.00 | 0.00 | 0.00 | 35 | 1006.4 |
| 20260504183515 | 70 | 225 | 7.8 | 14.8 | 0.00 | 0.00 | 0.00 | 35 | 1006.5 |
| 20260504182518 | 70 | 248 | 5.2 | 16.5 | 0.00 | 0.00 | 0.00 | 35 | 1006.6 |
| 20260504181538 | 70 | 203 | 7.0 | 14.8 | 0.00 | 0.00 | 0.00 | 35 | 1006.6 |
| 20260504180539 | 70 | 225 | 7.0 | 16.5 | 0.00 | 0.00 | 0.00 | 34 | 1006.8 |
| 20260504175518 | 69 | 248 | 10.4 | 23.5 | 0.00 | 0.00 | 0.00 | 35 | 1007.0 |
| 20260504174518 | 69 | 270 | 9.6 | 23.5 | 0.00 | 0.00 | 0.00 | 35 | 1007.0 |
| 20260504173517 | 69 | 270 | 7.0 | 14.8 | 0.00 | 0.00 | 0.00 | 36 | 1007.0 |
| 20260504172518 | 69 | 225 | 7.0 | 20.9 | 0.00 | 0.00 | 0.00 | 35 | 1007.2 |
| 20260504171518 | 69 | 248 | 7.8 | 22.6 | 0.00 | 0.00 | 0.00 | 36 | 1006.9 |
| 20260504170517 | 68 | 270 | 7.8 | 19.1 | 0.00 | 0.00 | 0.00 | 37 | 1007.1 |
| 20260504150517 | 65 | 180 | 5.2 | 12.2 | 0.00 | 0.02 | 0.00 | 45 | 1008.5 |
| 20260504140517 | 62 | 270 | 8.7 | 16.5 | 0.00 | 0.02 | 0.00 | 45 | 1009.0 |
| 20260504130518 | 58 | 180 | 2.6 | 6.1 | 0.00 | 0.02 | 0.00 | 56 | 1009.6 |
| 20260504110517 | 50 | 158 | 1.7 | 4.3 | 0.00 | 0.02 | 0.00 | 61 | 1010.3 |
| 20260504100517 | 49 | 270 | 1.7 | 8.7 | 0.00 | 0.02 | 0.00 | 60 | 1010.3 |
| 20260504081537 | 48 | 248 | 2.6 | 7.0 | 0.00 | 0.02 | 0.00 | 58 | 1010.0 |
| 20260504080516 | 48 | 248 | 2.6 | 6.1 | 0.00 | 0.02 | 0.00 | 58 | 1009.9 |